Flag for USA

Past Weather in Washington Avenue Historic District, Georgia, USA — Yesterday and Last 2 Weeks

Now
71 °F

Clear.


Feels Like: 69 °F
Forecast: 90 / 71 °F
Wind: 3 mph from Southwest

Location: Fulton County Airport-Brown Field

Current Time: Jul 14, 2020 at 7:10:26 am

Latest Report: Jul 14, 2020 at 5:53 am


Visibility: 10 mi

Pressure: 29.94 "Hg

Humidity: 87%

Dew Point: 67 °F

Location of Washington Avenue Historic DistrictLocation

Past Weather in Washington Avenue Historic District — Graph

°F

Washington Avenue Historic District Temperature Yesterday

Maximum temperature yesterday: 89 °F (at 4:53 pm)
Minimum temperature yesterday: 68 °F (at 5:53 am)
Average temperature yesterday: 78 °F

High & Low Weather Summary for the Past Weeks

 TemperatureHumidityPressure
High92 °F (Jun 29, 4:53 pm)100% (Jul 9, 10:53 pm)30.04 "Hg (Jul 9, 10:53 pm)
Low67 °F (Jul 12, 6:53 am)37% (Jul 5, 2:53 pm)29.76 "Hg (Jul 12, 6:53 pm)
Average78 °F75%29.93 "Hg
* Reported Jun 29 5:53 am — Jul 14 5:53 am, Washington Avenue Historic District. Weather by CustomWeather, © 2020

Note: Actual official high and low records may vary slightly from our data, if they occured in-between our weather recording intervals... More about our weather records

Washington Avenue Historic District Weather History for the Previous 24 Hours

Scroll right to see more
 ConditionsComfort  
Time TempWeatherWind HumidityBarometerVisibility
5:53 am
Tue, Jul 14
71 °FClear.3 mph87%29.94 "Hg10 mi
4:53 am70 °FClear.No wind90%29.92 "Hg10 mi
3:53 am72 °FClear.No wind87%29.92 "Hg10 mi
2:53 am73 °FClear.No wind84%29.93 "Hg10 mi
1:53 am76 °FClear.3 mph77%29.93 "Hg10 mi
12:53 am77 °FClear.No wind74%29.93 "Hg10 mi
11:53 pm
Mon, Jul 13
80 °FClear.3 mph67%29.93 "Hg10 mi
10:53 pm80 °FClear.3 mph67%29.92 "Hg10 mi
9:53 pm81 °FClear.3 mph62%29.90 "Hg10 mi
8:53 pm84 °FClear.3 mph55%29.89 "Hg10 mi
7:53 pm87 °FPassing clouds.6 mph48%29.88 "Hg10 mi
6:53 pm88 °FPassing clouds.7 mph45%29.88 "Hg10 mi
5:53 pm88 °FSunny.9 mph48%29.88 "Hg10 mi
4:53 pm89 °FScattered clouds.9 mph48%29.89 "Hg10 mi
3:53 pm88 °FScattered clouds.9 mph52%29.90 "Hg10 mi
2:53 pm87 °FScattered clouds.14 mph55%29.91 "Hg10 mi
1:53 pm85 °FScattered clouds.10 mph59%29.91 "Hg10 mi
12:53 pm84 °FPassing clouds.10 mph61%29.92 "Hg10 mi
11:53 am83 °FScattered clouds.8 mph65%29.91 "Hg10 mi
10:53 am81 °FScattered clouds.9 mph67%29.90 "Hg10 mi
9:53 am77 °FSunny.6 mph74%29.90 "Hg10 mi
9:16 am75 °FSunny.5 mph79%29.92 "Hg10 mi
8:53 am72 °FScattered clouds.3 mph87%29.90 "Hg10 mi
8:35 am71 °FScattered clouds.No wind90%29.92 "Hg7 mi
7:53 am69 °FFog.3 mph93%29.88 "Hg3 mi
7:38 am69 °FLow clouds.5 mph90%29.90 "Hg10 mi
Weather by CustomWeather, © 2020

See weather overview